Location: Bidart
(43.4376°N, 1.5913°W)
Time: 14:02:38
(UTC+00:00)

DEBRIS - Pass Details

Date: 19 May 2025
Orbit: 278 x 14612 km, 49.5° (Epoch: 17 June)

Event Time Altitude Azimuth Distance (km) Brightness Sun altitude
Rises 20:30:47 0° 301° (WNW) 6,583 10.3 -10.1°
Reaches altitude 10° 20:37:08 10° 296° (WNW) 3,859 8.5 -11.0°
Maximum altitude 20:43:58 34° 234° (SW) 1,090 4.4 -11.9°
Enters shadow 20:46:15 14° 171° (S) 1,343 4.3 -12.2°
